Probability
0 0 0 0 0 0 0 0 0 0 0 0 0 0 0 0 0 0 0 0 0 0 0 0 0 0 0 0 0 0 0 0 0 0 1 0 0 0 0 0 0 0 0 0
0 0 0 0 0 0 0 0 0 0 0 0 0 0 0 0 0 0 0 0 0 0 0 0 0 0 0 0 0 0 0 0 0 0 1 0 0 0 0 0 0 0 0 0
0 0 0 0 0 0 0 0 0 0 0 0 0 0 0 0 0 0 0 0 0 0 0 0 0 0 0 0 0 0 0 0 0 0 0 0 0 0 0 0 0 0 0 0
0 0 0 0 0 0 0 0 0 0 0 0 0 0 0 0 0 0 0 0 0 0 0 0 0 0 0 0 0 0 0 0 0 0 0 0 0 0 0 0 0 0 0 0
0 0 0 0 0 0 0 0 0 0 0 0 0 0 0 0 0 0 0 0 0 0 0 0 0 0 0 0 0 0 0 0 0 0 0 0 0 0 0 0 0 0 0 0
0 0 0 0 0 0 0 0 0 0 0 0 0 0 0 0 0 0 0 0 0 0 0 0 0 0 0 0 0 0 0 0 0 0 0 0 0 0 0 0 0 0 0 0
0 0 0 0 0 0 0 0 0 0 0 0 0 0 0 0 0 0 0 0 0 0 0 0 0 0 0 0 0 0 0 0 0 0 0 0 0 0 0 0 0 0 0 0
0 0 0 0 0 0 0 0 0 0 0 0 0 0 0 0 0 0 0 0 0 0 0 0 0 0 0 0 0 0 0 0 0 0 0 0 0 0 0 0 0 0 0 0
0 0 0 0 0 0 0 0 0 0 0 0 0 0 0 0 0 0 0 0 0 0 0 0 0 0 0 0 0 0 0 0 0 0 0 0 0 0 0 0 0 0 0 0
0 0 0 0 0 0 0 0 0 0 0 0 0 0 0 0 0 0 0 0 0 0 0 0 0 0 0 0 0 0 0 0 0 0 0 0 0 0 0 0 0 0 0 0
0 0 0 0 0 0 0 0 0 0 0 0 0 0 0 0 0 0 0 0 0 0 0 0 0 0 0 0 0 0 0 0 0 0 0 0 0 0 0 0 0 0 0 0
0 0 0 0 0 0 0 0 0 0 0 0 0 0 0 0 0 0 0 0 0 0 0 0 0 0 0 0 0 0 0 0 0 0 0 0 0 0 0 0 0 0 0 0
0 0 0 0 0 0 0 0 0 0 0 0 0 1 0 0 0 0 0 0 0 0 0 0 0 0 0 0 0 0 0 0 0 0 0 0 0 0 0 0 0 0 0 0
0 0 0 0 0 0 0 0 0 0 0 0 0 0 0 0 0 0 0 0 0 0 0 0 0 0 0 0 0 0 0 0 0 0 0 0 0 0 0 0 0 0 0 0
0 0 0 0 0 0 0 0 0 0 0 0 0 0 0 0 0 0 0 0 0 0 0 0 0 0 0 0 0 0 0 0 0 0 0 0 0 0 0 0 0 0 0 0
0 0 0 0 0 0 0 0 0 0 0 0 0 0 0 0 0 0 0 0 0 0 0 1 1 0 0 0 0 0 0 0 0 0 0 0 0 0 0 0 0 0 0 0
0 0 0 0 0 0 0 0 0 0 0 0 0 0 0 0 0 0 0 0 0 0 0 1 1 0 0 0 0 0 0 0 0 0 0 0 0 0 0 0 0 0 0 0
0 0 0 0 0 0 0 0 0 0 0 0 0 0 0 0 0 0 0 0 0 0 0 1 1 0 0 0 0 0 0 0 0 0 0 0 0 0 0 0 0 0 0 0
0 0 0 0 0 0 0 0 0 0 0 0 0 0 0 0 0 0 0 0 0 0 0 0 0 0 0 0 0 0 0 0 0 0 0 0 0 0 0 0 0 0 0 0
0 0 0 0 0 0 0 0 0 0 0 0 0 0 0 0 0 0 0 0 0 0 0 0 0 0 0 0 0 0 0 0 0 0 0 0 0 0 0 0 0 0 0 0
0 0 0 0 0 0 0 0 0 0 0 0 0 0 0 0 0 0 0 0 0 0 0 0 0 1 0 0 0 0 0 0 0 0 0 0 0 0 0 0 0 0 0 0
0 0 0 0 0 0 0 0 0 0 0 0 0 0 0 0 0 0 0 0 0 0 0 0 0 0 0 0 0 0 0 0 0 0 0 0 0 0 0 0 0 0 0 0
0 0 0 0 0 0 0 0 0 0 0 0 0 0 0 0 0 0 0 0 0 0 0 0 0 0 0 0 0 0 0 0 0 0 0 0 0 0 0 0 0 0 0 0
0 0 0 0 0 0 0 0 0 0 0 0 0 0 0 0 0 0 0 0 0 0 0 0 0 0 0 0 0 0 0 0 0 0 0 0 0 0 0 0 0 0 0 0
0 0 0 0 0 0 0 0 0 0 0 0 0 0 0 0 0 0 0 0 0 0 0 0 0 0 0 0 0 0 0 0 0 0 0 0 0 0 0 0 0 0 0 0
0 0 0 0 0 0 0 0 0 0 0 0 0 0 0 0 0 0 0 0 0 0 0 0 0 0 0 0 0 0 0 0 0 0 0 0 0 0 0 0 0 0 0 0
0 0 0 0 0 0 0 0 0 0 0 0 0 0 0 0 0 0 0 0 0 0 0 0 0 0 0 0 0 0 0 0 0 0 0 0 0 0 0 0 0 0 0 0
Wind_Speed
15 15 14 17 17 15 15 19 22 21 21 19 18 16 14 11 8 8 10 10 9 8 7 6 5 5 5 2 1 1 4 10 10 8 7 8 8 8 8 8 8 8 8 8
15 16 17 20 19 18 17 19 21 22 21 17 14 13 12 10 8 9 10 10 10 8 8 8 8 7 6 2 3 2 5 9 9 10 10 10 8 8 10 9 7 9 9 9
10 6 12 13 7 8 11 14 15 17 16 14 16 14 13 11 8 8 9 9 9 9 8 8 8 7 6 3 2 1 5 9 7 8 11 9 7 9 10 9 7 7 8 9
9 9 11 3 4 7 11 13 14 15 12 12 13 12 11 10 9 8 8 8 8 8 8 8 8 8 6 5 3 4 7 8 7 9 14 10 6 6 7 7 6 6 7 8
7 10 14 9 5 8 12 17 11 8 10 12 13 13 12 7 11 8 5 6 8 8 8 8 8 8 7 8 5 3 4 5 5 10 13 14 12 8 6 5 5 4 6 8
10 10 10 6 10 9 12 10 13 18 20 20 19 15 11 6 6 10 7 6 8 8 8 8 8 8 8 9 8 7 6 5 5 7 10 13 14 12 9 8 6 4 6 8
10 11 9 10 10 14 13 16 24 23 22 22 19 18 16 14 8 10 9 9 9 9 9 9 8 8 9 10 9 9 7 7 6 6 8 10 12 11 10 8 7 6 6 7
6 8 6 14 18 14 17 20 21 21 21 20 19 19 17 15 11 12 12 11 12 11 11 10 10 10 10 10 9 8 8 8 7 7 7 9 10 10 11 10 10 8 8 8
10 11 15 18 16 17 19 21 23 24 23 22 20 20 19 18 15 13 15 14 13 13 12 11 11 11 11 10 9 9 10 9 8 8 7 8 9 9 10 10 10 10 8 6
10 13 11 14 14 17 19 21 23 24 25 23 20 20 20 19 17 13 13 15 14 15 15 14 13 13 12 11 11 12 11 11 10 8 7 7 7 8 8 10 11 11 10 8
9 11 15 13 19 19 16 16 19 23 22 21 21 21 21 19 18 15 12 13 15 16 17 16 14 14 13 12 12 13 12 11 10 9 8 7 5 4 5 4 5 9 9 8
5 8 9 9 14 21 22 20 20 22 23 19 18 18 20 20 20 19 16 14 15 17 18 17 16 15 14 13 12 12 11 10 10 9 9 8 7 6 8 6 8 8 3 3
7 11 11 13 16 18 20 21 20 23 28 24 19 17 17 17 17 20 21 17 15 18 20 19 18 17 16 15 14 13 12 11 10 9 9 9 8 8 8 7 7 6 5 5
13 13 15 18 21 22 22 22 23 20 22 22 19 21 20 18 17 15 17 18 16 14 16 17 18 18 18 17 15 14 12 9 9 10 9 9 8 8 9 12 12 8 5 5
13 14 16 19 20 20 22 23 23 23 26 25 19 17 22 22 18 14 14 15 18 15 17 19 19 18 18 16 16 15 13 11 10 10 10 10 10 9 9 10 11 10 10 8
16 17 19 22 23 24 26 26 22 20 23 26 23 19 20 24 21 15 11 12 16 16 15 17 17 16 16 17 17 16 14 12 11 11 11 11 10 9 9 10 11 9 10 11
19 22 24 25 25 24 25 26 26 23 22 23 23 19 17 22 23 17 11 10 12 17 16 15 18 21 21 21 19 15 13 13 12 11 12 12 11 11 11 11 10 12 12 13
19 24 25 25 23 23 26 26 26 26 24 24 24 22 20 18 20 20 12 9 11 13 16 17 18 20 21 21 19 15 13 14 14 13 12 12 11 11 13 15 14 13 11 14
24 24 24 24 23 22 23 23 23 23 24 24 24 23 21 18 20 18 14 10 9 11 14 15 14 13 17 21 19 15 15 15 15 14 12 12 11 12 12 12 12 13 12 12
27 27 25 24 24 22 21 22 22 22 21 21 24 23 22 18 19 16 15 9 6 7 12 13 11 15 17 19 20 16 16 17 17 16 14 14 13 13 13 14 14 14 13 13
27 27 27 25 25 24 22 22 22 24 24 21 20 24 24 20 18 16 14 11 6 7 10 11 12 13 16 17 19 16 17 17 17 17 16 16 15 15 14 14 14 13 12 11
25 25 26 26 25 24 22 23 24 25 22 18 18 22 24 21 17 15 15 12 6 5 6 8 11 15 17 18 18 18 17 17 16 16 16 16 15 15 15 15 15 14 13 13
24 25 26 26 25 26 26 24 23 23 21 17 15 19 21 20 15 14 13 9 6 5 3 6 11 10 17 17 18 18 18 18 17 16 16 16 15 15 16 16 15 15 15 15
23 26 26 25 26 26 25 24 24 22 19 17 18 21 18 16 15 14 9 6 7 6 3 4 13 13 12 16 17 18 17 17 17 16 17 17 16 16 16 15 15 15 15 15
22 22 24 25 23 21 22 24 22 19 15 12 16 20 15 13 14 15 11 4 11 11 5 4 10 9 11 15 16 17 16 16 16 16 16 16 16 16 16 15 16 16 15 14
24 19 18 20 19 17 17 18 17 17 14 12 11 12 12 11 13 11 11 8 7 10 7 2 4 5 10 13 14 15 15 16 16 15 16 16 16 16 15 15 17 15 15 14
21 21 19 18 19 19 19 20 19 17 14 12 9 9 12 12 12 12 12 10 8 8 9 5 3 4 6 9 10 11 13 14 15 15 15 15 15 15 15 16 15 14 13 14
Wind_Direction
283 288 283 274 276 276 264 261 271 285 291 293 300 311 319 314 300 274 269 277 279 265 243 239 247 259 269 308 322 251 166 170 182 181 186 147 137 144 145 139 134 136 133 128
281 278 279 278 276 272 266 264 265 270 275 281 305 316 297 295 281 275 280 278 275 265 252 247 246 245 248 260 306 278 172 170 184 169 143 122 128 140 140 136 138 139 133 119
280 305 296 280 266 261 275 274 270 270 284 315 320 310 306 300 278 274 290 282 268 262 256 250 252 244 235 214 211 130 131 138 166 153 116 108 122 130 131 120 126 136 131 120
287 292 271 347 330 288 289 288 291 287 294 312 324 320 297 273 266 282 296 284 267 258 249 246 250 246 227 222 207 152 133 120 134 136 111 108 93 100 114 111 116 131 135 128
275 294 293 309 2 351 317 299 308 340 348 335 331 311 289 228 225 232 270 271 260 252 239 240 245 241 236 232 209 175 136 121 147 151 142 144 149 154 145 132 125 137 139 135
285 293 292 18 46 2 316 299 14 342 324 321 319 302 308 347 243 224 203 218 240 237 229 228 234 238 237 240 226 217 184 170 171 153 153 157 161 162 162 160 150 170 150 133
275 280 289 24 18 339 312 322 335 323 316 313 302 292 301 300 268 241 227 206 214 221 218 221 220 228 238 246 238 228 195 171 174 161 145 145 155 161 161 165 157 163 131 128
275 276 289 360 337 337 315 318 317 313 307 302 297 289 290 289 269 238 237 218 203 211 212 213 213 218 232 237 238 225 188 182 178 171 163 155 161 161 161 166 166 162 149 142
298 293 324 348 346 350 350 337 330 321 313 306 301 296 295 295 287 255 236 226 206 208 211 208 208 214 222 217 209 208 193 186 182 175 166 160 165 166 163 173 173 167 150 132
279 285 342 338 345 3 358 348 341 337 330 320 309 303 300 298 294 280 247 228 212 204 210 207 205 207 215 207 193 204 198 191 184 180 166 169 174 179 185 178 176 168 153 158
284 344 346 339 348 348 347 342 340 336 333 334 330 325 318 311 303 292 270 242 219 208 208 206 200 204 207 206 194 200 198 190 191 184 175 180 185 146 195 189 171 163 156 160
335 335 318 324 346 352 351 347 346 329 324 336 342 342 333 324 320 312 294 258 228 218 210 201 196 200 200 198 197 204 202 199 200 205 185 188 171 130 60 63 93 111 162 164
337 338 342 340 347 351 346 343 340 333 324 331 336 335 332 326 321 322 310 282 242 220 214 199 191 195 192 190 195 203 210 206 193 211 196 188 185 181 155 107 81 104 141 113
352 348 339 342 335 334 332 327 324 317 312 319 335 333 328 326 321 323 320 310 284 245 224 210 195 193 190 189 191 195 202 205 201 198 205 188 191 189 177 163 157 144 133 116
337 331 317 314 315 318 321 319 319 318 316 320 327 324 316 317 320 315 308 314 299 266 231 212 205 195 189 189 192 195 197 194 203 200 202 190 182 185 180 169 159 151 149 141
316 306 305 311 315 321 318 313 311 308 310 309 310 314 314 306 303 307 308 316 307 287 249 217 200 191 181 183 194 197 196 190 196 205 195 193 186 174 170 158 158 162 178 172
301 304 312 308 305 308 305 302 300 302 300 300 303 303 300 301 297 293 306 315 306 290 270 227 196 183 186 186 191 193 190 177 191 206 196 190 187 164 167 174 178 187 189 173
300 299 298 300 302 301 304 304 303 307 305 302 300 300 296 292 295 291 297 308 309 301 277 244 212 196 184 180 187 189 186 175 185 202 190 187 190 181 179 186 194 191 183 158
308 306 305 303 300 301 302 303 308 311 307 302 297 294 292 293 290 288 287 301 306 298 280 248 209 197 186 186 184 184 183 179 179 195 188 183 185 190 196 196 188 188 188 172
310 308 307 306 303 303 303 304 304 303 305 310 309 299 290 288 284 279 273 281 276 282 292 273 206 187 198 191 187 186 183 185 181 190 191 183 188 194 190 191 194 194 197 198
316 313 311 310 310 309 307 305 302 300 303 308 309 300 293 288 285 278 266 267 277 298 314 288 247 214 198 188 189 192 186 189 190 190 191 190 190 196 196 190 199 206 205 209
318 317 315 314 312 309 306 303 302 301 299 299 306 300 295 291 289 283 268 258 262 294 313 305 259 210 204 181 189 196 189 191 192 194 196 196 196 197 203 200 201 206 213 215
319 317 313 312 311 306 302 300 299 296 296 298 298 294 292 287 281 278 279 262 217 224 278 297 287 242 208 187 195 201 189 192 193 196 199 198 200 204 209 209 212 210 210 217
317 319 316 312 308 306 306 308 304 301 303 302 293 292 297 296 286 276 269 242 195 202 220 276 286 274 215 202 202 201 190 193 195 196 197 198 202 206 212 214 216 221 218 219
318 319 317 316 317 315 311 302 295 287 280 282 289 288 293 296 289 290 294 255 183 187 209 255 277 267 230 210 206 204 196 195 196 198 199 199 204 207 209 212 213 217 224 222
317 317 311 314 319 312 303 300 301 293 283 276 275 284 290 282 275 279 282 274 221 185 185 218 267 239 233 220 207 211 206 199 197 203 205 203 205 208 211 215 215 217 224 228
315 315 319 324 322 314 311 310 306 294 278 264 261 271 276 278 284 284 275 267 252 203 172 170 259 265 255 245 218 211 217 209 204 205 210 212 209 208 212 216 217 217 217 222